[TLELIST] Archives

 

[list_settings.list_name] Current TLEs

May 28th 2013 PDT

HST 1 20580U 90037B 13147.81458508 .00001716 00000-0 11021-3 0 2490 2 20580 028.4710 046.3875 0003301 129.4918 283.6510 15.03636440 66620 ISS (ZARYA) 1 25544U 98067A 13148.26805513 .00010745 00000-0 19199-3 0 8940 2 25544 051.6490 207.1102 0009867 007.5875 037.0879 15.50554108831619 CXO 1 25867U 99040B 13149.40157956 -.00000760 00000-0 00000+0 0 9066 2 25867 075.3180 340.6341 8579348 277.5539 359.4563 00.37800116 10469 ____________________________________________________________________ These 2-Line ...Continue Reading

[list_settings.list_name] Current TLEs

May 27th 2013 PDT

HST 1 20580U 90037B 13146.17306402 .00001988 00000-0 12959-3 0 2484 2 20580 028.4709 057.1481 0003359 112.5853 037.3539 15.03629742 66380 ISS (ZARYA) 1 25544U 98067A 13147.37165294 .00011001 00000-0 19650-3 0 8887 2 25544 051.6492 211.5535 0009838 003.5328 074.1599 15.50535125831470 CXO 1 25867U 99040B 13149.40157956 -.00000760 00000-0 00000+0 0 9066 2 25867 075.3180 340.6341 8579348 277.5539 359.4563 00.37800116 10469 ____________________________________________________________________ These 2-Line ...Continue Reading

[list_settings.list_name] Current TLEs

May 26th 2013 PDT

HST 1 20580U 90037B 13146.17306402 .00001988 00000-0 12959-3 0 2484 2 20580 028.4709 057.1481 0003359 112.5853 037.3539 15.03629742 66380 ISS (ZARYA) 1 25544U 98067A 13146.34811618 .00011254 00000-0 20101-3 0 8817 2 25544 051.6494 216.6284 0009668 359.5280 121.1287 15.50512434831319 CXO 1 25867U 99040B 13149.40157956 -.00000760 00000-0 00000+0 0 9066 2 25867 075.3180 340.6341 8579348 277.5539 359.4563 00.37800116 10469 ____________________________________________________________________ These 2-Line ...Continue Reading

[list_settings.list_name] Current TLEs

May 25th 2013 PDT

HST 1 20580U 90037B 13145.12481481 .00002252 00000-0 14851-3 0 2476 2 20580 028.4710 064.0194 0003404 102.3360 122.1810 15.03625350 66220 ISS (ZARYA) 1 25544U 98067A 13145.24030940 .00012737 00000-0 22656-3 0 8731 2 25544 051.6497 222.1187 0009791 355.7461 057.2854 15.50491999831144 CXO 1 25867U 99040B 13146.75587934 -.00000728 00000-0 00000+0 0 9057 2 25867 075.3020 340.7952 8582710 277.5455 359.4469 00.37798858 10458 ____________________________________________________________________ These 2-Line ...Continue Reading

[list_settings.list_name] Current TLEs

May 24th 2013 PDT

HST 1 20580U 90037B 13143.97223197 .00002064 00000-0 13507-3 0 2462 2 20580 028.4708 071.5743 0003411 091.2877 001.9491 15.03620150 66049 ISS (ZARYA) 1 25544U 98067A 13144.21626477 .00013875 00000-0 24625-3 0 8689 2 25544 051.6494 227.1952 0009573 351.2297 102.1116 15.50470296830981 CXO 1 25867U 99040B 13144.11109643 -.00000768 00000-0 00000+0 0 9045 2 25867 075.2854 340.9713 8584745 277.5313 359.5834 00.37801900 10441 ____________________________________________________________________ These 2-Line ...Continue Reading

[list_settings.list_name] Current TLEs

May 23rd 2013 PDT

HST 1 20580U 90037B 13142.83261519 .00001895 00000-0 12304-3 0 2450 2 20580 028.4705 079.0441 0003363 080.8805 311.4228 15.03614807 65874 ISS (ZARYA) 1 25544U 98067A 13143.37641818 .00014065 00000-0 24971-3 0 8643 2 25544 051.6489 231.3592 0009524 348.0618 094.4554 15.50446910830850 CXO 1 25867U 99040B 13144.11109643 -.00000768 00000-0 00000+0 0 9045 2 25867 075.2854 340.9713 8584745 277.5313 359.5834 00.37801900 10441 ____________________________________________________________________ These 2-Line ...Continue Reading

[list_settings.list_name] Current TLEs

May 22nd 2013 PDT

HST 1 20580U 90037B 13141.32497296 .00002090 00000-0 13698-3 0 2440 2 20580 028.4702 088.9263 0003432 065.2262 070.1156 15.03608794 65656 ISS (ZARYA) 1 25544U 98067A 13142.21706487 .00014675 00000-0 26048-3 0 8586 2 25544 051.6489 237.1067 0009546 343.8246 103.4341 15.50414840830677 CXO 1 25867U 99040B 13144.11109643 -.00000768 00000-0 00000+0 0 9045 2 25867 075.2854 340.9713 8584745 277.5313 359.5834 00.37801900 10441 ____________________________________________________________________ These 2-Line ...Continue Reading

[list_settings.list_name] Current TLEs

May 21st 2013 PDT

HST 1 20580U 90037B 13140.12524322 .00002303 00000-0 15221-3 0 2438 2 20580 028.4698 096.7916 0003505 052.3619 056.0570 15.03604758 65475 ISS (ZARYA) 1 25544U 98067A 13141.30650442 .00011732 00000-0 21012-3 0 8503 2 25544 051.6488 241.6221 0009665 339.2323 062.4256 15.50385334830534 CXO 1 25867U 99040B 13141.46693852 -.00000657 00000-0 00000+0 0 9036 2 25867 075.2659 341.1668 8584661 277.5240 359.7544 00.37802806 10437 ____________________________________________________________________ These 2-Line ...Continue Reading

[list_settings.list_name] Current TLEs

May 20th 2013 PDT

HST 1 20580U 90037B 13140.12524322 .00002303 00000-0 15221-3 0 2438 2 20580 028.4698 096.7916 0003505 052.3619 056.0570 15.03604758 65475 ISS (ZARYA) 1 25544U 98067A 13140.47830631 .00017579 00000-0 31093-3 0 8459 2 25544 051.6490 245.7284 0009173 337.5909 118.5513 15.50363490830400 CXO 1 25867U 99040B 13141.46693852 -.00000657 00000-0 00000+0 0 9036 2 25867 075.2659 341.1668 8584661 277.5240 359.7544 00.37802806 10437 ____________________________________________________________________ These 2-Line ...Continue Reading

[list_settings.list_name] Current TLEs

May 19th 2013 PDT

HST 1 20580U 90037B 13139.12107178 .00002055 00000-0 13452-3 0 2429 2 20580 028.4701 103.3684 0003540 041.6360 020.5257 15.03600057 65319 ISS (ZARYA) 1 25544U 98067A 13139.30826478 .00029599 00000-0 51778-3 0 8382 2 25544 051.6479 251.5234 0009375 332.9506 068.6170 15.50334239830226 CXO 1 25867U 99040B 13141.46693852 -.00000657 00000-0 00000+0 0 9036 2 25867 075.2659 341.1668 8584661 277.5240 359.7544 00.37802806 10437 ____________________________________________________________________ These 2-Line ...Continue Reading
  • This mailing list is a public mailing list - anyone may join or leave, at any time.
  • This mailing list is announce-only.

International Space Station (ISS) / Hubble Space Telescope (HST) / Chandra X-Ray Observatory Orbital Data via EMAIL

Privacy Policy:

Private list